Content
SEND FEEDBACK

Daily
Averages
Monthly
Summary
United States of America

LANCASTER, KENTUCKY


Home > North America > United States > Kentucky
Elevation: 103 feet     Latitude: 37 37N     Longitude: 084 35W

WEATHER
 
SELECT A DAY
Number of Records: 158,920;   Date Range: 3/25/08 - 11/24/14
 
SHARE

PRINT THIS DATA

[ ← Previous Day ]
WEATHER ALMANAC - AUGUST 27, 2014
[ Next Day → ]
[ °C ]   °F
Weather ElementAverageHighLow
Temperature73.3 °F87.8 °F (3:15 pm) (6:55 pm)
Dewpoint65.7 °F71.6 °F (7:55 pm) (7:00 pm)
Humidity79.1 %100 % (2:15 am)54 % (11:35 am)
Barometer30.11 in30.15 in (8:55 am)30.06 in (5:55 pm)
Wind Speed1 mph6.9 mph (12:55 pm)
Weather ElementAverage
Visibility9.9 mi
Wind DirectionNNE (20 °)

Weather ElementTotal
Precipitation---
Heating Degree Days21.1 (Base 65)
Averaged from 67 records on August 27, 2014
WEATHER CONDITIONS BREAKOUT
WIND DIRECTION BREAKOUT
WEATHER BY HOUR - AUGUST 27, 2014
[ °C ]   °F
Local TimeTemperatureDewpointHumidityBarometerVisibilityWind DirectionWind SpeedGust SpeedPrecipitationEventsConditions
12:35 AM68.0 °F66.2 °F94 %30.12 in10.0 miCalmClear
1:15 AM66.2 °F64.4 °F94 %30.12 in10.0 miCalmClear
1:35 AM68.0 °F64.4 °F88 %30.12 in10.0 miCalmClear
1:55 AM66.2 °F64.4 °F94 %30.11 in10.0 miCalmClear
2:15 AM64.4 °F64.4 °F100 %30.11 in10.0 miCalmClear
2:35 AM64.4 °F64.4 °F100 %30.12 in10.0 miCalmClear
2:55 AM64.4 °F62.6 °F94 %30.12 in10.0 miCalmClear
3:15 AM64.4 °F62.6 °F94 %30.12 in10.0 miCalmClear
3:35 AM64.4 °F62.6 °F94 %30.12 in10.0 miCalmClear
3:55 AM64.4 °F62.6 °F94 %30.12 in10.0 miCalmClear
4:15 AM64.4 °F62.6 °F94 %30.12 in10.0 miCalmClear
4:35 AM64.4 °F62.6 °F94 %30.12 in10.0 miCalmClear
4:55 AM62.6 °F62.6 °F100 %30.11 in10.0 miCalmClear
5:15 AM62.6 °F62.6 °F100 %30.11 in10.0 miCalmClear
5:35 AM62.6 °F62.6 °F100 %30.12 in10.0 miCalmClear
5:55 AM62.6 °F62.6 °F100 %30.11 in10.0 miCalmClear
6:15 AM62.6 °F62.6 °F100 %30.12 in10.0 miCalmClear
6:35 AM62.6 °F62.6 °F100 %30.12 in10.0 miCalmClear
6:55 AM62.6 °F62.6 °F100 %30.13 in10.0 miCalmClear
7:15 AM62.6 °F62.6 °F100 %30.13 in10.0 miCalmClear
7:35 AM62.6 °F62.6 °F100 %30.13 in10.0 miCalmClear
7:55 AM62.6 °F62.6 °F100 %30.14 in10.0 miCalmClear
8:15 AM64.4 °F62.6 °F94 %30.14 in10.0 miCalmClear
8:35 AM66.2 °F64.4 °F94 %30.14 in10.0 miCalmClear
8:55 AM69.8 °F64.4 °F83 %30.15 in10.0 miCalmClear
9:15 AM71.6 °F66.2 °F83 %30.15 in10.0 miCalmClear
9:35 AM73.4 °F66.2 °F78 %30.15 in10.0 miCalmClear
9:55 AM75.2 °F68.0 °F78 %30.15 in10.0 miCalmClear
10:15 AM77.0 °F68.0 °F74 %30.15 in10.0 miCalmClear
10:35 AM78.8 °F66.2 °F65 %30.15 in10.0 miCalmClear
10:55 AM80.6 °F66.2 °F61 %30.15 in10.0 miSSW (200°)3.5 mphClear
11:15 AM80.6 °F66.2 °F61 %30.15 in10.0 miCalmClear
11:35 AM82.4 °F64.4 °F54 %30.15 in10.0 miCalmScattered Clouds
11:55 AM80.6 °F64.4 °F58 %30.15 in10.0 miEast (100°)3.5 mphScattered Clouds
12:15 PM82.4 °F68.0 °F62 %30.15 in10.0 miENE (60°)3.5 mphScattered Clouds
12:35 PM82.4 °F66.2 °F58 %30.15 in10.0 miNNE (30°)4.6 mphScattered Clouds
12:55 PM82.4 °F68.0 °F62 %30.15 in10.0 miNNE (30°)6.9 mphMostly Cloudy
1:15 PM82.4 °F69.8 °F66 %30.13 in10.0 miNE (50°)6.9 mphScattered Clouds
1:35 PM84.2 °F69.8 °F62 %30.13 in10.0 miNorth (360°)4.6 mphClear
1:55 PM84.2 °F69.8 °F62 %30.12 in10.0 miNorth (10°)3.5 mphClear
2:15 PM84.2 °F69.8 °F62 %30.12 in10.0 miCalmScattered Clouds
2:35 PM86.0 °F69.8 °F58 %30.11 in10.0 miNNE (30°)3.5 mphMostly Cloudy
2:55 PM86.0 °F69.8 °F58 %30.11 in10.0 miCalmMostly Cloudy
3:15 PM87.8 °F69.8 °F55 %30.11 in10.0 miESE (120°)4.6 mphMostly Cloudy
3:35 PM86.0 °F69.8 °F58 %30.10 in10.0 miNE (50°)3.5 mphMostly Cloudy
3:55 PM86.0 °F69.8 °F58 %30.10 in10.0 miCalmScattered Clouds
4:15 PM86.0 °F69.8 °F58 %30.09 in10.0 miSE (140°)5.8 mphScattered Clouds
4:35 PM87.8 °F69.8 °F55 %30.08 in10.0 miCalmMostly Cloudy
4:55 PM87.8 °F69.8 °F55 %30.07 in10.0 miCalmClear
5:15 PM87.8 °F69.8 °F55 %30.08 in10.0 miSSE (150°)3.5 mphClear
5:35 PM86.0 °F68.0 °F55 %30.07 in10.0 miCalmClear
5:55 PM86.0 °F69.8 °F58 %30.06 in10.0 miCalmClear
6:55 PM0.0 °F0.0 °F30.06 inCalm
7:15 PM82.4 °F69.8 °F66 %30.07 in10.0 miCalmClear
7:35 PM82.4 °F69.8 °F66 %30.07 in10.0 miCalmScattered Clouds
7:55 PM80.6 °F71.6 °F74 %30.07 in10.0 miCalmMostly Cloudy
8:15 PM78.8 °F71.6 °F78 %30.07 in10.0 miNorth (10°)5.8 mphMostly Cloudy
8:35 PM78.8 °F69.8 °F74 %30.07 in10.0 miCalmMostly Cloudy
8:55 PM77.0 °F69.8 °F78 %30.07 in10.0 miCalmScattered Clouds
9:15 PM75.2 °F69.8 °F83 %30.07 in10.0 miCalmClear
9:35 PM73.4 °F69.8 °F88 %30.08 in10.0 miCalmClear
9:55 PM73.4 °F69.8 °F88 %30.08 in10.0 miCalmClear
10:15 PM73.4 °F69.8 °F88 %30.08 in10.0 miCalmClear
10:35 PM73.4 °F69.8 °F88 %30.09 in10.0 miCalmClear
10:55 PM73.4 °F69.8 °F88 %30.09 in10.0 miCalmClear
11:15 PM71.6 °F69.8 °F94 %30.09 in7.0 miCalmClear
11:55 PM71.6 °F69.8 °F94 %30.09 in7.0 miCalmClear
Hourly data recorded from KDVK, located miles away from Lancaster, Kentucky







STORIES FROM OUR PARTNERS